Dewpoint
70 69 74 74 75 76 76 76 77 77 78 78 78 78 78 77 77 77 77 76 75 76 74 74 74 73 73 74 74 73 73 72 73 72 73 72 73 72 71 70 69 65 72
69 69 74 74 75 76 76 76 76 77 78 78 77 77 77 77 77 77 77 75 75 75 75 75 74 74 74 73 73 72 72 72 72 72 72 72 72 72 70 70 71 69 72
66 68 70 75 75 76 77 77 76 76 76 77 76 76 76 76 78 77 75 75 75 75 74 74 74 74 74 73 72 72 72 72 70 70 71 71 67 71 70 71 72 72 72
64 65 68 76 75 75 76 76 76 75 75 76 76 75 76 76 76 75 75 75 74 74 74 74 73 74 74 74 73 72 71 71 70 71 71 68 66 72 72 73 71 72 72
66 68 71 75 75 75 76 76 76 76 75 75 75 74 74 75 75 74 74 74 74 74 74 73 73 73 73 74 74 72 71 70 70 71 69 69 71 72 73 72 71 72 71
67 68 73 75 75 75 76 77 76 76 76 75 74 74 74 75 74 74 74 74 74 74 73 73 73 73 73 74 73 73 72 72 72 72 70 67 70 73 72 71 73 73 72
67 67 70 76 76 75 76 76 76 75 75 75 75 74 74 74 74 74 74 73 73 73 72 73 73 73 73 73 74 73 73 72 72 71 69 72 70 73 71 73 71 72 73
67 67 70 75 75 76 76 76 76 75 75 76 75 75 74 74 73 74 73 72 72 72 72 73 72 72 73 73 73 73 73 73 70 71 70 70 74 73 73 74 71 71 73
67 68 70 71 75 76 76 76 76 76 75 75 75 75 74 73 73 73 72 71 72 72 73 73 72 72 73 73 73 73 73 73 72 69 69 71 75 74 74 73 73 72 72
67 68 70 71 71 73 73 76 76 75 74 74 75 74 74 73 73 72 72 72 72 72 72 72 72 72 72 72 72 72 73 73 70 70 71 70 74 74 74 73 72 73 73
68 69 69 68 71 74 74 75 76 74 73 74 74 74 73 70 71 71 74 72 72 72 72 72 72 73 72 73 72 71 73 64 65 68 70 74 72 73 74 74 72 72 73
67 66 67 70 71 71 67 74 72 69 68 69 68 70 69 70 73 69 72 74 72 73 72 73 73 73 73 69 65 70 63 66 65 65 70 74 72 72 72 74 74 73 73
64 64 69 73 73 72 74 69 69 68 68 68 71 71 69 69 72 71 74 71 72 72 73 72 71 70 68 67 65 64 64 64 62 63 72 73 71 72 72 72 73 74 73
65 65 67 71 73 72 72 69 67 66 66 66 68 73 72 69 73 70 72 73 72 72 70 71 70 69 69 69 67 66 63 61 60 61 68 73 72 72 73 73 73 73 72
64 65 67 69 72 72 74 68 67 67 65 66 67 70 69 67 74 74 71 69 70 72 72 69 69 68 69 69 66 65 63 61 60 59 61 73 72 72 73 74 73 73 73
64 65 66 69 73 74 74 74 71 69 70 66 66 67 72 70 76 70 75 73 73 72 73 67 70 69 70 68 64 64 63 62 63 63 60 66 73 72 72 73 73 73 74
64 66 67 69 71 73 74 74 71 68 67 68 66 70 70 72 72 74 73 70 69 72 72 72 73 72 67 60 62 61 61 62 61 64 62 59 67 74 72 72 74 74 74
65 67 68 66 68 72 74 74 71 69 73 69 70 72 72 73 74 74 70 69 73 70 73 69 72 67 61 60 60 60 61 61 63 63 62 62 60 59 72 74 72 75 73
66 68 69 70 69 71 76 73 72 74 72 73 71 71 75 73 74 73 70 72 74 71 70 68 68 67 60 60 59 58 61 61 61 59 61 62 65 63 60 74 73 72 73
65 68 70 70 73 73 78 78 74 69 71 71 71 70 73 72 74 73 70 72 71 74 68 72 69 63 63 62 57 56 61 62 61 59 58 56 61 62 64 67 69 69 73
65 68 71 73 76 73 71 73 71 69 70 69 68 74 75 74 74 74 71 73 71 71 72 68 65 65 60 62 59 58 60 61 61 60 55 54 55 56 61 64 66 69 72
66 69 73 74 77 76 72 74 72 72 68 66 67 72 73 75 74 73 75 70 71 69 70 68 67 62 59 62 59 57 56 60 61 61 57 53 54 53 57 62 65 68 69
66 70 73 77 78 77 77 74 75 74 71 71 68 70 72 73 73 74 73 73 73 69 58 67 65 64 58 63 66 60 54 59 59 63 61 55 56 53 55 58 60 61 63
65 69 74 77 78 78 78 74 76 70 67 64 66 66 70 74 73 73 74 72 72 65 69 65 63 65 65 60 59 61 63 63 56 56 62 57 55 53 56 54 53 58 58
64 66 71 77 79 79 78 77 72 73 66 65 63 74 73 76 72 70 71 72 70 63 67 67 65 67 65 61 58 57 63 57 60 54 50 54 54 54 55 54 53 52 55
63 65 69 77 79 79 78 77 77 77 73 66 67 68 67 66 69 71 69 72 70 65 66 65 67 67 66 65 62 62 58 54 54 53 51 54 52 54 54 55 55 55 53
Lifted_Index
-1 -1 -2 -3 -4 -5 -5 -5 -5 -6 -6 -6 -6 -6 -7 -7 -7 -7 -7 -6 -6 -6 -6 -5 -5 -5 -5 -5 -5 -5 -4 -4 -4 -4 -4 -4 -4 -4 -3 -3 -2 -2 -3
-1 -2 -2 -3 -4 -5 -5 -5 -5 -6 -6 -6 -6 -6 -6 -7 -7 -7 -7 -6 -6 -6 -6 -6 -6 -5 -5 -5 -5 -5 -4 -4 -4 -3 -3 -3 -3 -3 -3 -3 -2 -2 -3
-1 -2 -3 -3 -4 -4 -5 -5 -5 -5 -6 -6 -6 -6 -6 -6 -7 -7 -6 -6 -6 -6 -6 -6 -6 -6 -6 -6 -5 -5 -4 -4 -4 -3 -3 -3 -2 -3 -3 -3 -3 -3 -3
-1 -2 -2 -3 -4 -4 -5 -5 -5 -5 -6 -6 -6 -6 -6 -6 -7 -7 -6 -6 -6 -6 -6 -6 -6 -6 -6 -6 -6 -5 -5 -4 -4 -3 -3 -2 -2 -3 -3 -3 -3 -3 -3
-2 -2 -3 -4 -4 -4 -5 -5 -6 -6 -6 -6 -6 -6 -6 -6 -7 -7 -6 -6 -6 -6 -6 -6 -6 -7 -7 -7 -6 -6 -5 -4 -4 -4 -3 -3 -3 -3 -3 -3 -3 -3 -3
-2 -3 -3 -4 -4 -5 -5 -6 -6 -6 -7 -6 -6 -6 -6 -7 -7 -7 -7 -7 -6 -6 -6 -6 -7 -7 -7 -7 -7 -6 -6 -5 -5 -4 -4 -3 -3 -4 -4 -3 -3 -3 -3
-3 -3 -3 -4 -4 -5 -6 -6 -6 -7 -7 -7 -7 -7 -7 -7 -7 -7 -7 -7 -7 -6 -7 -7 -7 -7 -7 -7 -7 -6 -6 -6 -6 -5 -5 -4 -4 -4 -4 -4 -3 -3 -3
-3 -3 -4 -4 -5 -6 -6 -6 -7 -7 -7 -7 -7 -7 -7 -7 -7 -7 -7 -7 -7 -7 -7 -7 -7 -6 -7 -7 -7 -6 -6 -6 -6 -5 -5 -5 -5 -5 -5 -4 -4 -3 -4
-4 -4 -4 -5 -5 -6 -6 -6 -7 -7 -7 -7 -7 -7 -7 -7 -7 -7 -6 -6 -6 -7 -7 -7 -6 -6 -6 -6 -6 -6 -6 -6 -6 -5 -5 -5 -6 -5 -5 -5 -4 -4 -4
-4 -5 -5 -5 -5 -6 -6 -7 -7 -7 -6 -6 -7 -7 -6 -6 -6 -6 -6 -6 -6 -6 -6 -6 -6 -6 -6 -6 -6 -5 -5 -5 -5 -5 -5 -5 -6 -6 -5 -5 -4 -4 -4
-5 -5 -5 -5 -5 -6 -6 -6 -6 -6 -5 -5 -5 -5 -5 -5 -5 -5 -5 -6 -6 -6 -6 -6 -5 -5 -5 -5 -5 -4 -4 -4 -4 -5 -5 -5 -5 -5 -6 -5 -5 -4 -4
-4 -4 -5 -5 -6 -6 -6 -6 -5 -5 -4 -4 -4 -4 -4 -5 -5 -5 -5 -5 -5 -5 -5 -5 -5 -5 -5 -4 -4 -3 -3 -3 -3 -4 -4 -5 -5 -5 -5 -5 -5 -5 -4
-4 -4 -5 -5 -6 -6 -6 -5 -5 -4 -4 -3 -4 -4 -4 -4 -4 -4 -5 -5 -5 -5 -5 -5 -4 -4 -4 -4 -3 -3 -2 -2 -2 -2 -3 -4 -4 -5 -5 -5 -5 -5 -5
-4 -4 -5 -5 -5 -6 -5 -5 -4 -4 -3 -3 -3 -4 -4 -4 -4 -4 -4 -5 -4 -4 -4 -4 -4 -4 -3 -3 -3 -2 -1 -1 -0 -1 -2 -3 -4 -4 -5 -5 -5 -5 -5
-4 -4 -4 -5 -5 -6 -5 -5 -4 -3 -3 -3 -3 -3 -4 -4 -4 -4 -4 -4 -4 -4 -4 -4 -4 -3 -3 -3 -2 -1 -1 0 1 0 -1 -3 -4 -4 -5 -5 -5 -5 -5
-4 -4 -4 -5 -5 -6 -6 -5 -4 -3 -3 -3 -3 -3 -3 -4 -4 -4 -4 -4 -4 -4 -4 -4 -4 -3 -3 -2 -1 -1 -0 0 0 0 -0 -2 -3 -4 -4 -5 -5 -5 -5
-3 -3 -4 -4 -5 -5 -6 -5 -4 -4 -3 -3 -3 -3 -4 -4 -4 -5 -5 -4 -4 -4 -4 -4 -4 -3 -2 -1 -0 -0 -0 -0 -0 -0 -0 -1 -2 -3 -4 -4 -5 -5 -5
-3 -3 -4 -4 -5 -5 -6 -5 -5 -4 -4 -4 -4 -4 -4 -5 -5 -5 -5 -4 -4 -4 -4 -4 -3 -2 -1 0 0 0 0 -0 -0 -0 -0 -0 -1 -2 -3 -4 -4 -5 -5
-3 -3 -4 -4 -4 -5 -6 -6 -5 -5 -5 -5 -5 -5 -5 -5 -5 -5 -5 -4 -4 -4 -4 -3 -3 -1 -0 0 1 0 0 -0 -0 0 0 -0 -1 -1 -2 -3 -4 -4 -5
-3 -3 -4 -4 -5 -5 -6 -6 -5 -5 -5 -5 -5 -5 -5 -5 -5 -5 -5 -5 -4 -4 -3 -3 -2 -0 0 1 1 1 -0 -0 -0 1 1 1 0 -0 -1 -3 -4 -4 -4
-3 -4 -4 -5 -5 -5 -5 -6 -5 -5 -5 -4 -4 -5 -6 -6 -6 -5 -5 -5 -4 -4 -3 -2 -1 0 1 1 1 1 -0 -1 -0 1 2 2 2 1 -0 -1 -3 -4 -4
-3 -4 -5 -6 -6 -6 -6 -6 -6 -5 -5 -4 -4 -5 -6 -6 -6 -5 -5 -5 -4 -3 -2 -1 -0 1 1 1 0 0 -0 -1 -0 0 1 3 3 3 2 0 -1 -2 -2
-3 -4 -5 -6 -7 -7 -7 -6 -6 -5 -4 -4 -4 -5 -5 -6 -6 -6 -5 -5 -4 -2 -1 -1 -0 1 1 1 0 0 0 -0 -0 -0 1 2 3 3 3 2 2 1 1
-4 -4 -6 -7 -7 -7 -7 -6 -6 -5 -4 -4 -4 -4 -5 -6 -6 -6 -5 -5 -4 -2 -0 -0 0 0 1 1 1 1 0 0 0 1 1 2 3 4 4 4 4 3 3
-4 -4 -5 -7 -8 -8 -8 -7 -6 -5 -4 -3 -3 -4 -5 -6 -6 -5 -5 -4 -3 -1 -0 -0 0 0 0 1 1 1 1 1 1 2 2 3 3 4 4 4 5 5 5
-4 -4 -5 -7 -8 -8 -8 -7 -7 -6 -5 -4 -4 -4 -5 -5 -5 -4 -4 -4 -3 -1 -0 -0 -0 0 0 1 1 1 2 2 2 3 3 4 4 4 4 4 5 5 5